period_start,C,m1,H,J0,J1,J2,J3,J4,J5,JA,JB,JC,JD,JJ,JK,JN,#
2014-09-02 00:01:05,0.02,0.10,0.00,22.87,26.74,29.25,9.43,38.33,1003.84,2041.99,3465.59,3305.97,3583.42,499.76,490.64,20.00,0000 0000 0000 0000 000000
2014-09-02 00:06:06,0.02,0.10,0.00,22.79,26.73,29.34,9.49,38.50,1003.72,2041.99,3465.03,3305.74,3583.02,499.83,490.56,20.04,0000 0000 0000 0000 000000
2014-09-02 00:11:07,0.01,0.10,0.00,22.79,26.72,29.42,9.35,38.58,1003.61,2041.99,3465.00,3305.40,3583.00,499.66,490.31,20.09,0000 0000 0000 0000 000000
2014-09-02 00:16:08,0.00,0.10,0.00,22.79,26.72,29.37,9.46,38.48,1003.46,2041.99,3464.95,3305.13,3583.00,499.87,490.53,20.13,0000 0000 0000 0000 000000
2014-09-02 00:21:09,0.01,0.10,0.00,22.79,26.72,29.27,9.57,38.54,1003.44,2041.99,3464.46,3305.01,3583.00,500.59,491.10,20.17,0000 0000 0000 0000 000000
2014-09-02 00:26:10,0.00,0.10,0.00,22.88,26.72,29.27,9.52,38.31,1003.44,2041.99,3464.04,3305.00,3582.99,500.44,490.87,20.21,0000 0000 0000 0000 000000
2014-09-02 00:31:11,0.01,0.10,0.00,22.93,26.72,29.19,9.36,38.36,1003.43,2041.99,3463.97,3304.99,3582.50,499.80,490.19,20.25,0000 0000 0000 0000 000000
2014-09-02 00:36:12,0.01,0.10,0.00,22.87,26.72,29.17,9.41,38.37,1003.41,2042.00,3463.52,3304.95,3582.06,499.67,490.27,20.30,0000 0000 0000 0000 000000
2014-09-02 00:41:13,0.01,0.10,0.00,22.72,26.72,29.25,9.45,38.42,1003.26,2042.00,3463.03,3304.58,3582.00,500.30,490.82,20.34,0000 0000 0000 0000 000000
2014-09-02 00:46:14,0.01,0.11,0.00,22.78,26.72,29.38,9.59,38.35,1003.07,2042.00,3462.97,3304.06,3581.99,500.46,490.77,20.38,0000 0000 0000 0000 000000
2014-09-02 00:51:15,0.00,0.11,0.00,22.76,26.72,29.37,9.27,38.39,1002.99,2042.00,3462.84,3304.03,3581.96,499.86,490.34,20.42,0000 0000 0000 0000 000000
2014-09-02 00:56:15,0.02,0.11,0.00,22.76,26.72,29.34,9.45,38.54,1002.96,2042.00,3462.16,3304.01,3581.46,500.08,490.51,20.46,0000 0000 0000 0000 000000
2014-09-02 01:01:16,0.00,0.11,0.00,22.86,26.72,29.36,9.41,38.56,1002.95,2042.00,3462.00,3304.00,3581.02,499.83,490.10,20.51,0000 0000 0000 0000 000000
2014-09-02 01:06:17,0.00,0.11,0.00,22.91,26.72,29.23,9.37,38.48,1002.97,2042.01,3461.87,3303.93,3580.99,500.02,490.17,20.55,0000 0000 0000 0000 000000
2014-09-02 01:11:18,0.03,0.11,0.00,22.80,26.72,29.21,9.37,38.51,1002.95,2042.00,3461.17,3303.56,3580.93,499.82,490.24,20.59,0000 0000 0000 0000 000000
2014-09-02 01:16:19,0.01,0.11,0.00,22.75,26.72,29.31,9.48,38.57,1002.94,2042.01,3461.00,3303.19,3580.61,500.33,490.81,20.63,0000 0000 0000 0000 000000
2014-09-02 01:21:20,0.01,0.11,0.00,22.80,26.72,29.41,9.43,38.74,1002.91,2042.00,3460.98,3303.04,3580.08,500.00,490.34,20.67,0000 0000 0000 0000 000000
2014-09-02 01:26:22,0.00,0.11,0.00,22.79,26.72,29.33,9.40,38.73,1002.70,2042.01,3460.84,3303.01,3580.01,500.03,490.33,20.71,0000 0000 0000 0000 000000
2014-09-02 01:31:23,0.00,0.11,0.00,22.79,26.72,29.28,9.59,38.92,1002.51,2042.01,3460.45,3303.00,3580.00,500.57,490.52,20.76,0000 0000 0000 0000 000000
2014-09-02 01:36:24,0.01,0.11,0.00,22.86,26.72,29.31,9.49,38.77,1002.47,2042.05,3460.09,3303.00,3579.98,500.52,490.40,20.80,0000 0000 0000 0000 000000
2014-09-02 01:41:25,0.00,0.11,0.00,22.94,26.72,29.24,9.42,38.60,1002.47,2042.03,3460.00,3302.98,3579.74,500.18,489.86,20.84,0000 0000 0000 0000 000000
2014-09-02 01:46:26,0.02,0.11,0.00,22.93,26.72,29.18,9.43,38.66,1002.46,2042.02,3459.86,3302.71,3579.13,500.00,489.84,20.88,0000 0000 0000 0000 000000
2014-09-02 01:51:27,0.02,0.11,0.00,22.74,26.72,29.20,9.40,38.83,1002.46,2042.02,3459.14,3302.24,3579.01,499.96,490.22,20.92,0000 0000 0000 0000 000000
2014-09-02 01:56:28,0.00,0.11,0.00,22.78,26.72,29.31,9.43,38.61,1002.46,2042.03,3459.00,3302.04,3578.99,499.96,490.14,20.97,0000 0000 0000 0000 000000
2014-09-02 02:01:29,0.01,0.11,0.00,22.85,26.72,29.39,9.42,38.66,1002.44,2042.01,3458.80,3302.00,3578.71,499.83,489.98,21.01,0000 0000 0000 0000 000000
2014-09-02 02:06:31,0.01,0.11,0.00,22.85,26.72,29.38,9.39,38.67,1002.41,2042.01,3458.12,3301.99,3578.14,499.71,489.76,21.05,0000 0000 0000 0000 000000
2014-09-02 02:11:32,0.00,0.12,0.00,22.86,26.72,29.29,9.36,38.40,1002.29,2042.01,3458.00,3301.95,3578.01,499.60,489.63,21.09,0000 0000 0000 0000 000000
2014-09-02 02:16:33,0.01,0.12,0.00,22.88,26.72,29.29,9.51,38.53,1002.15,2042.00,3457.96,3301.54,3577.99,500.15,489.87,21.13,0000 0000 0000 0000 000000
2014-09-02 02:21:34,0.02,0.12,0.00,22.84,26.72,29.32,9.47,38.59,1002.17,2042.02,3457.36,3301.16,3577.94,499.89,489.77,21.18,0000 0000 0000 0000 000000
2014-09-02 02:26:35,0.01,0.12,0.00,22.86,26.70,29.36,9.46,38.57,1002.10,2042.04,3457.07,3301.11,3577.78,500.16,489.99,21.22,0000 0000 0000 0000 000000
2014-09-02 02:31:37,0.02,0.12,0.00,22.81,26.70,29.25,9.44,38.48,1002.03,2042.07,3457.00,3301.01,3577.24,500.21,490.15,21.26,0000 0000 0000 0000 000000
2014-09-02 02:36:38,0.00,0.12,0.00,22.87,26.70,29.22,9.49,38.58,1002.01,2042.06,3456.96,3301.00,3577.02,500.04,489.87,21.30,0000 0000 0000 0000 000000
2014-09-02 02:41:39,0.02,0.12,0.00,22.94,26.70,29.18,9.45,38.42,1001.99,2042.13,3456.36,3301.00,3577.00,499.82,489.37,21.34,0000 0000 0000 0000 000000
2014-09-02 02:46:40,0.01,0.12,0.00,22.85,26.70,29.16,9.48,38.53,1001.97,2042.08,3456.01,3300.94,3576.86,500.38,490.11,21.38,0000 0000 0000 0000 000000
2014-09-02 02:51:41,0.02,0.12,0.00,22.79,26.70,29.22,9.37,38.52,1001.98,2042.11,3455.98,3300.72,3576.42,499.69,489.63,21.43,0000 0000 0000 0000 000000
2014-09-02 02:56:43,0.03,0.12,0.00,22.81,26.70,29.35,9.31,38.63,1001.97,2042.11,3455.31,3300.08,3576.03,499.31,489.35,21.47,0000 0000 0000 0000 000000
2014-09-02 03:01:44,0.01,0.12,0.00,22.84,26.70,29.40,9.41,38.55,1001.97,2042.15,3455.00,3300.02,3576.00,500.04,489.63,21.51,0000 0000 0000 0000 000000
2014-09-02 03:06:45,0.01,0.12,0.00,22.85,26.69,29.29,9.51,38.64,1001.97,2042.27,3455.00,3300.00,3575.99,500.30,490.02,21.55,0000 0000 0000 0000 000000
2014-09-02 03:11:46,0.03,0.12,0.00,22.89,26.68,29.23,9.40,38.60,1001.97,2042.49,3454.96,3300.00,3575.93,500.12,489.73,21.59,0000 0000 0000 0000 000000
2014-09-02 03:16:48,0.03,0.12,0.00,22.91,26.68,29.20,9.54,38.49,1001.95,2042.63,3454.48,3299.98,3575.50,500.16,490.01,21.64,0000 0000 0000 0000 000000
2014-09-02 03:21:49,0.02,0.13,0.00,22.92,26.67,29.20,9.50,38.52,1001.88,2042.66,3454.04,3299.97,3575.07,500.13,489.87,21.68,0000 0000 0000 0000 000000
2014-09-02 03:26:50,0.02,0.13,0.00,22.89,26.67,29.22,9.46,38.43,1001.61,2042.87,3454.01,3299.93,3575.01,499.98,489.60,21.72,0000 0000 0000 0000 000000
2014-09-02 03:31:52,0.02,0.13,0.00,22.88,26.67,29.26,9.47,38.45,1001.48,2042.89,3453.95,3299.59,3574.99,500.18,489.66,21.76,0000 0000 0000 0000 000000
2014-09-02 03:36:52,0.01,0.13,0.00,22.86,26.67,29.35,9.42,38.53,1001.48,2042.72,3453.26,3299.05,3574.89,500.05,489.38,21.80,0000 0000 0000 0000 000000
2014-09-02 03:41:54,0.02,0.13,0.00,22.80,26.67,29.40,9.50,38.35,1001.48,2042.83,3453.02,3299.02,3574.60,500.14,489.72,21.85,0000 0000 0000 0000 000000
2014-09-02 03:46:54,0.01,0.13,0.00,22.81,26.67,29.43,9.60,38.72,1001.48,2042.89,3452.99,3299.00,3574.13,499.95,489.58,21.89,0000 0000 0000 0000 000000
2014-09-02 03:51:55,0.01,0.13,0.00,22.82,26.67,29.42,9.43,38.56,1001.48,2042.86,3452.63,3298.99,3574.00,500.13,489.73,21.93,0000 0000 0000 0000 000000
2014-09-02 03:56:56,0.01,0.13,0.00,22.84,26.65,29.40,9.55,38.64,1001.48,2042.89,3452.10,3298.97,3573.98,500.62,489.98,21.97,0000 0000 0000 0000 000000
2014-09-02 04:01:57,0.02,0.13,0.00,22.82,26.65,29.28,9.46,38.64,1001.48,2042.88,3452.00,3298.64,3573.84,500.25,489.68,22.01,0000 0000 0000 0000 000000
2014-09-02 04:06:58,0.02,0.13,0.00,22.85,26.65,29.19,9.33,38.90,1001.48,2042.96,3451.98,3298.27,3573.43,499.86,489.37,22.06,0000 0000 0000 0000 000000
2014-09-02 04:11:59,0.02,0.13,0.00,22.91,26.65,29.13,9.50,38.67,1001.48,2042.95,3451.54,3298.03,3573.03,500.06,489.51,22.10,0000 0000 0000 0000 000000
2014-09-02 04:17:00,0.01,0.13,0.00,22.80,26.65,29.12,9.39,38.55,1001.48,2042.98,3451.02,3298.01,3573.00,500.01,489.68,22.14,0000 0000 0000 0000 000000
2014-09-02 04:22:02,0.01,0.13,0.00,22.75,26.65,29.17,9.51,38.68,1001.47,2042.95,3450.84,3297.97,3572.79,500.05,489.52,22.18,0000 0000 0000 0000 000000
2014-09-02 04:27:03,0.03,0.14,0.00,22.78,26.65,29.21,9.49,38.57,1001.41,2042.98,3450.11,3297.83,3572.27,500.33,489.94,22.22,0000 0000 0000 0000 000000
2014-09-02 04:32:04,0.02,0.14,0.00,22.72,26.65,29.23,9.42,38.63,1001.10,2042.98,3449.99,3297.29,3572.02,499.91,489.73,22.26,0000 0000 0000 0000 000000
2014-09-02 04:37:05,0.01,0.14,0.00,22.73,26.65,29.28,9.54,38.49,1001.05,2042.96,3449.75,3297.02,3571.99,500.28,489.77,22.31,0000 0000 0000 0000 000000
2014-09-02 04:42:06,0.01,0.14,0.00,22.81,26.65,29.28,9.35,38.40,1001.01,2042.98,3449.08,3297.00,3571.93,499.53,488.93,22.35,0000 0000 0000 0000 000000
2014-09-02 04:47:07,0.01,0.14,0.00,22.87,26.65,29.16,9.49,38.59,1001.00,2042.99,3448.99,3296.99,3571.35,500.26,489.50,22.39,0000 0000 0000 0000 000000
2014-09-02 04:52:08,0.02,0.14,0.00,22.83,26.64,29.13,9.50,38.64,1000.99,2042.99,3448.53,3296.83,3571.01,500.38,489.76,22.43,0000 0000 0000 0000 000000
2014-09-02 04:57:09,0.02,0.14,0.00,22.69,26.64,29.13,9.36,38.69,1000.99,2042.99,3448.02,3296.24,3570.98,499.75,489.25,22.47,0000 0000 0000 0000 000000
2014-09-02 05:02:10,0.02,0.14,0.00,22.68,26.63,29.18,9.49,38.78,1000.99,2042.99,3447.82,3296.00,3570.46,499.91,489.50,22.52,0000 0000 0000 0000 000000
2014-09-02 05:07:11,0.01,0.14,0.00,22.80,26.62,29.27,9.45,38.77,1000.99,2042.99,3447.09,3296.00,3570.03,500.00,489.28,22.56,0000 0000 0000 0000 000000
2014-09-02 05:12:12,0.02,0.14,0.00,22.87,26.62,29.19,9.38,38.70,1000.99,2042.99,3446.80,3295.78,3569.96,500.00,489.18,22.60,0000 0000 0000 0000 000000
2014-09-02 05:17:14,0.04,0.14,0.00,22.82,26.62,29.18,9.36,38.50,1000.99,2042.99,3446.06,3295.13,3569.39,499.89,489.31,22.64,0000 0000 0000 0000 000000
2014-09-02 05:22:14,0.00,0.14,0.00,22.77,26.62,29.14,9.32,38.73,1000.98,2042.99,3445.85,3295.02,3569.02,499.60,489.07,22.68,0000 0000 0000 0000 000000
2014-09-02 05:27:15,0.01,0.14,0.00,22.71,26.62,29.14,9.26,38.58,1000.98,2042.99,3445.07,3294.96,3568.99,499.97,489.50,22.73,0000 0000 0000 0000 000000
2014-09-02 05:32:17,0.02,0.15,0.00,22.70,26.62,29.18,9.57,38.73,1000.94,2042.99,3444.98,3294.66,3568.70,500.76,490.24,22.77,0000 0000 0000 0000 000000
2014-09-02 05:37:18,0.04,0.15,0.00,22.72,26.62,29.21,9.45,38.79,1000.94,2042.99,3444.27,3294.06,3568.04,499.94,489.40,22.81,0000 0000 0000 0000 000000
2014-09-02 05:42:18,0.00,0.15,0.00,22.82,26.62,29.17,9.38,38.75,1000.89,2042.99,3444.00,3294.00,3568.00,499.65,488.96,22.85,0000 0000 0000 0000 000000
2014-09-02 05:47:19,0.01,0.15,0.00,22.76,26.62,29.11,9.45,38.85,1000.72,2042.99,3443.66,3293.99,3567.92,500.06,489.21,22.89,0000 0000 0000 0000 000000
2014-09-02 05:52:21,0.02,0.15,0.00,22.62,26.61,29.09,9.48,38.67,1000.67,2042.99,3443.04,3293.84,3567.31,500.02,489.57,22.94,0000 0000 0000 0000 000000
2014-09-02 05:57:22,0.02,0.15,0.00,22.66,26.61,29.11,9.37,38.61,1000.58,2042.99,3442.81,3293.16,3567.01,499.87,489.25,22.98,0000 0000 0000 0000 000000
2014-09-02 06:02:23,0.01,0.15,0.00,22.77,26.60,29.10,9.43,38.93,1000.53,2042.99,3442.06,3293.00,3566.96,500.37,489.61,23.02,0000 0000 0000 0000 000000
2014-09-02 06:07:24,0.02,0.15,0.00,22.65,26.60,29.07,9.50,38.97,1000.51,2042.99,3441.71,3292.97,3566.29,500.27,489.83,23.06,0000 0000 0000 0000 000000
2014-09-02 06:12:25,0.03,0.15,0.00,22.62,26.60,29.10,9.39,38.90,1000.51,2042.99,3441.02,3292.33,3566.00,499.76,489.21,23.10,0000 0000 0000 0000 000000
2014-09-02 06:17:26,0.02,0.15,0.00,22.68,26.60,29.12,9.29,38.76,1000.50,2043.01,3440.52,3292.01,3565.81,499.24,488.81,23.14,0000 0000 0000 0000 000000
2014-09-02 06:22:27,0.02,0.16,0.00,22.62,26.60,29.12,9.44,38.75,1000.52,2043.00,3439.93,3291.96,3565.07,500.21,489.70,23.19,0000 0000 0000 0000 000000
2014-09-02 06:27:28,0.05,0.16,0.00,22.63,26.60,29.18,9.42,38.88,1000.51,2043.00,3439.09,3291.34,3564.76,500.15,489.51,23.23,0000 0000 0000 0000 000000
2014-09-02 06:32:30,0.02,0.16,0.00,22.64,26.60,29.17,9.44,38.72,1000.51,2043.00,3438.53,3291.01,3564.07,499.57,489.04,23.27,0000 0000 0000 0000 000000
2014-09-02 06:37:31,0.01,0.16,0.00,22.68,26.60,29.13,9.41,38.63,1000.50,2043.02,3437.99,3290.98,3564.00,499.57,489.09,23.31,0000 0000 0000 0000 000000
2014-09-02 06:42:32,0.05,0.16,0.00,22.74,26.60,29.09,9.41,38.38,1000.50,2043.02,3437.44,3290.51,3563.61,499.87,489.12,23.35,0000 0000 0000 0000 000000
2014-09-02 06:47:33,0.02,0.16,0.00,22.61,26.59,29.04,9.47,38.65,1000.50,2043.01,3436.71,3290.00,3563.01,500.04,489.64,23.40,0000 0000 0000 0000 000000
2014-09-02 06:52:34,0.03,0.16,0.00,22.65,26.59,29.07,9.40,38.41,1000.50,2043.01,3435.99,3289.74,3562.54,499.55,489.02,23.44,0000 0000 0000 0000 000000
2014-09-02 06:57:35,0.04,0.17,0.00,22.64,26.58,29.13,9.45,38.58,1000.50,2043.02,3435.26,3289.07,3562.03,500.17,489.59,23.48,0000 0000 0000 0000 000000
2014-09-02 07:02:36,0.01,0.17,0.00,22.62,26.58,29.11,9.44,38.90,1000.50,2043.03,3434.71,3288.99,3561.84,499.80,489.57,23.52,0000 0000 0000 0000 000000
2014-09-02 07:07:37,0.04,0.17,0.00,22.59,26.57,29.20,9.40,38.70,1000.50,2043.02,3434.00,3288.49,3561.09,499.75,489.14,23.56,0000 0000 0000 0000 000000
2014-09-02 07:12:38,0.02,0.17,0.00,22.67,26.57,29.24,9.44,38.40,1000.50,2043.04,3433.24,3288.02,3560.95,500.22,489.42,23.61,0000 0000 0000 0000 000000
2014-09-02 07:17:40,0.03,0.17,0.00,22.67,26.57,29.19,9.43,38.76,1000.50,2043.04,3432.65,3287.97,3560.21,500.04,489.49,23.65,0000 0000 0000 0000 000000
2014-09-02 07:22:41,0.03,0.17,0.00,22.57,26.57,29.23,9.46,38.81,1000.50,2043.06,3431.98,3287.25,3559.97,500.06,489.69,23.69,0000 0000 0000 0000 000000
2014-09-02 07:27:42,0.02,0.17,0.00,22.60,26.57,29.24,9.49,38.68,1000.49,2043.05,3431.17,3287.00,3559.26,500.27,489.58,23.73,0000 0000 0000 0000 000000
2014-09-02 07:32:43,0.03,0.17,0.00,22.58,26.57,29.17,9.36,38.67,1000.50,2043.10,3430.69,3286.82,3559.00,499.90,489.59,23.77,0000 0000 0000 0000 000000
2014-09-02 07:37:44,0.04,0.18,0.00,22.58,26.57,29.25,9.44,38.92,1000.50,2043.05,3430.03,3286.06,3558.42,499.99,489.53,23.81,0000 0000 0000 0000 000000
2014-09-02 07:42:45,0.02,0.18,0.00,22.56,26.57,29.26,9.55,38.80,1000.50,2043.06,3429.27,3285.99,3558.01,500.16,489.62,23.86,0000 0000 0000 0000 000000
2014-09-02 07:47:46,0.02,0.18,0.00,22.62,26.57,29.25,9.44,38.85,1000.50,2043.05,3428.92,3285.61,3557.83,500.36,489.63,23.90,0000 0000 0000 0000 000000
2014-09-02 07:52:47,0.04,0.18,0.00,22.63,26.57,29.26,9.44,38.89,1000.50,2043.06,3428.11,3285.04,3557.08,500.04,489.67,23.94,0000 0000 0000 0000 000000
2014-09-02 07:57:48,0.00,0.18,0.00,22.61,26.57,29.26,9.39,38.92,1000.50,2043.05,3427.80,3284.99,3557.00,499.75,489.15,23.98,0000 0000 0000 0000 000000
2014-09-02 08:02:49,0.03,0.18,0.00,22.61,26.57,29.24,9.49,38.82,1000.50,2043.06,3427.05,3284.67,3556.59,499.95,489.42,24.02,0000 0000 0000 0000 000000
2014-09-02 08:07:51,0.03,0.18,0.00,22.59,26.57,29.24,9.39,38.90,1000.50,2043.08,3426.63,3284.05,3556.03,500.06,489.63,24.07,0000 0000 0000 0000 000000
2014-09-02 08:12:52,0.01,0.18,0.00,22.61,26.57,29.23,9.46,38.75,1000.50,2043.14,3426.04,3284.00,3556.00,500.45,489.80,24.11,0000 0000 0000 0000 000000
2014-09-02 08:17:53,0.02,0.18,0.00,22.63,26.57,29.24,9.47,38.80,1000.50,2043.13,3425.72,3283.95,3555.61,499.83,489.17,24.15,0000 0000 0000 0000 000000
2014-09-02 08:22:54,0.04,0.19,0.00,22.55,26.57,29.26,9.47,38.98,1000.50,2043.13,3425.05,3283.39,3555.05,500.27,489.66,24.19,0000 0000 0000 0000 000000
2014-09-02 08:27:55,0.01,0.19,0.00,22.53,26.57,29.26,9.44,38.61,1000.50,2043.14,3424.87,3283.03,3555.00,499.78,489.52,24.23,0000 0000 0000 0000 000000
2014-09-02 08:32:56,0.02,0.19,0.00,22.58,26.57,29.26,9.39,38.61,1000.50,2043.21,3424.13,3282.99,3554.75,500.04,489.74,24.28,0000 0000 0000 0000 000000
2014-09-02 08:37:57,0.02,0.19,0.00,22.60,26.57,29.29,9.39,38.56,1000.50,2043.18,3423.99,3282.93,3554.07,500.23,489.61,24.32,0000 0000 0000 0000 000000
2014-09-02 08:42:58,0.03,0.19,0.00,22.58,26.58,29.30,9.48,38.53,1000.50,2043.20,3423.40,3282.32,3553.99,500.30,489.85,24.36,0000 0000 0000 0000 000000
2014-09-02 08:48:00,0.03,0.19,0.00,22.55,26.59,29.29,9.35,38.44,1000.50,2043.33,3423.01,3282.02,3553.97,499.31,488.82,24.40,0000 0000 0000 0000 000000
2014-09-02 08:53:01,0.01,0.19,0.00,22.60,26.59,29.31,9.44,38.68,1000.51,2043.34,3422.77,3282.00,3553.59,500.14,489.73,24.44,0000 0000 0000 0000 000000
2014-09-02 08:58:02,0.03,0.19,0.00,22.58,26.59,29.27,9.42,39.07,1000.51,2043.30,3422.09,3281.96,3553.04,500.45,489.97,24.49,0000 0000 0000 0000 000000
2014-09-02 09:03:03,-0.00,0.19,0.00,22.54,26.60,29.28,9.44,39.12,1000.52,2043.22,3421.97,3281.64,3553.00,500.05,489.72,24.53,0000 0000 0000 0000 000000
2014-09-02 09:08:04,0.04,0.19,0.00,22.55,26.60,29.29,9.46,39.10,1000.58,2043.23,3421.26,3281.06,3552.89,499.71,489.35,24.57,0000 0000 0000 0000 000000
2014-09-02 09:13:05,-0.01,0.19,0.00,22.58,26.60,29.30,9.48,38.95,1000.65,2043.13,3421.00,3281.01,3552.21,499.66,489.31,24.61,0000 0000 0000 0000 000000
2014-09-02 09:18:05,0.02,0.19,0.00,22.57,26.60,29.28,9.38,38.88,1000.75,2043.15,3420.91,3280.99,3552.01,500.22,489.83,24.65,0000 0000 0000 0000 000000
2014-09-02 09:23:06,0.02,0.20,0.00,22.53,26.60,29.30,9.48,38.78,1000.84,2043.18,3420.18,3280.93,3552.00,500.42,489.90,24.69,0000 0000 0000 0000 000000
2014-09-02 09:28:08,0.01,0.20,0.00,22.56,26.60,29.30,9.46,38.76,1000.96,2043.20,3419.99,3280.39,3551.95,500.05,489.78,24.74,0000 0000 0000 0000 000000
2014-09-02 09:33:09,0.03,0.20,0.00,22.55,26.60,29.29,9.50,38.72,1000.98,2043.16,3419.46,3280.03,3551.19,500.17,490.11,24.78,0000 0000 0000 0000 000000
2014-09-02 09:38:10,0.02,0.20,0.00,22.55,26.62,29.29,9.47,38.37,1000.98,2043.37,3419.03,3280.00,3551.03,499.85,489.71,24.82,0000 0000 0000 0000 000000
2014-09-02 09:43:11,-0.01,0.20,0.00,22.56,26.62,29.30,9.44,38.51,1000.99,2043.32,3418.93,3280.00,3550.98,499.78,489.66,24.86,0000 0000 0000 0000 000000
2014-09-02 09:48:12,0.03,0.20,0.00,22.56,26.62,29.31,9.42,38.52,1000.99,2043.12,3418.16,3279.66,3550.46,500.15,489.71,24.90,0000 0000 0000 0000 000000
2014-09-02 09:53:14,0.02,0.20,0.00,22.56,26.62,29.31,9.43,38.55,1000.99,2043.11,3417.99,3279.05,3550.01,499.88,489.51,24.95,0000 0000 0000 0000 000000
2014-09-02 09:58:14,0.00,0.20,0.00,22.53,26.62,29.32,9.44,38.53,1000.99,2043.07,3417.60,3279.00,3550.00,500.33,490.15,24.99,0000 0000 0000 0000 000000
2014-09-02 10:03:16,0.01,0.20,0.00,22.56,26.62,29.32,9.50,38.61,1001.00,2043.05,3417.02,3278.99,3549.83,500.07,489.83,25.03,0000 0000 0000 0000 000000
2014-09-02 10:08:17,0.03,0.20,0.00,22.54,26.62,29.33,9.41,38.81,1001.01,2043.05,3416.75,3278.71,3549.11,499.79,489.49,25.07,0000 0000 0000 0000 000000
2014-09-02 10:13:18,0.02,0.20,0.00,22.54,26.64,29.34,9.51,38.70,1001.01,2043.04,3416.05,3278.10,3549.00,500.11,489.97,25.11,0000 0000 0000 0000 000000
2014-09-02 10:18:19,0.00,0.20,0.00,22.50,26.65,29.32,9.38,38.50,1001.02,2043.06,3415.98,3278.00,3548.94,499.75,489.63,25.16,0000 0000 0000 0000 000000
2014-09-02 10:23:20,0.03,0.20,0.00,22.52,26.65,29.32,9.41,38.52,1001.06,2043.03,3415.33,3277.99,3548.37,499.74,489.62,25.20,0000 0000 0000 0000 000000
2014-09-02 10:28:22,0.01,0.21,0.00,22.52,26.65,29.30,9.48,38.71,1001.13,2043.01,3414.88,3277.54,3548.00,500.01,489.99,25.24,0000 0000 0000 0000 000000
2014-09-02 10:33:23,0.02,0.21,0.00,22.52,26.65,29.32,9.44,38.97,1001.18,2043.02,3414.08,3277.04,3547.94,499.69,489.79,25.28,0000 0000 0000 0000 000000
2014-09-02 10:38:24,0.01,0.21,0.00,22.55,26.65,29.34,9.42,38.98,1001.31,2043.02,3413.91,3277.00,3547.37,499.88,489.76,25.32,0000 0000 0000 0000 000000
2014-09-02 10:43:24,0.03,0.21,0.00,22.58,26.66,29.34,9.41,39.06,1001.45,2043.02,3413.14,3276.78,3546.99,499.89,489.86,25.37,0000 0000 0000 0000 000000
2014-09-02 10:48:25,0.03,0.21,0.00,22.50,26.67,29.34,9.51,39.25,1001.47,2043.00,3412.70,3276.10,3546.59,500.03,490.23,25.41,0000 0000 0000 0000 000000
2014-09-02 10:53:26,0.01,0.21,0.00,22.49,26.67,29.34,9.48,39.05,1001.48,2043.00,3412.01,3275.99,3546.01,499.95,490.14,25.45,0000 0000 0000 0000 000000
2014-09-02 10:58:27,0.02,0.21,0.00,22.53,26.67,29.35,9.49,38.94,1001.48,2043.00,3411.41,3275.76,3545.91,500.06,490.07,25.49,0000 0000 0000 0000 000000
2014-09-02 11:03:28,0.04,0.21,0.00,22.53,26.67,29.35,9.50,38.78,1001.48,2043.00,3410.99,3275.07,3545.21,500.13,490.30,25.53,0000 0000 0000 0000 000000
2014-09-02 11:08:30,0.02,0.21,0.00,22.49,26.68,29.33,9.38,39.09,1001.48,2043.00,3410.23,3274.99,3544.99,499.74,489.89,25.57,0000 0000 0000 0000 000000
2014-09-02 11:13:30,0.02,0.22,0.00,22.49,26.70,29.36,9.43,38.97,1001.48,2043.00,3409.89,3274.84,3544.69,499.68,489.82,25.62,0000 0000 0000 0000 000000
2014-09-02 11:18:31,0.04,0.22,0.00,22.52,26.70,29.40,9.44,38.62,1001.48,2043.00,3409.10,3274.10,3544.03,500.07,490.12,25.66,0000 0000 0000 0000 000000
2014-09-02 11:23:32,0.02,0.22,0.00,22.46,26.70,29.36,9.44,38.89,1001.49,2043.00,3408.48,3273.94,3543.69,500.06,490.40,25.70,0000 0000 0000 0000 000000
2014-09-02 11:28:33,0.04,0.22,0.00,22.50,26.70,29.38,9.43,38.80,1001.51,2043.00,3407.77,3273.33,3543.03,499.89,490.02,25.74,0000 0000 0000 0000 000000
2014-09-02 11:33:34,0.02,0.22,0.00,22.51,26.70,29.36,9.40,38.78,1001.51,2043.00,3406.99,3272.99,3542.55,499.95,490.18,25.78,0000 0000 0000 0000 000000
2014-09-02 11:38:35,0.04,0.22,0.00,22.51,26.71,29.36,9.44,39.27,1001.50,2042.99,3406.13,3272.45,3542.01,500.03,490.21,25.83,0000 0000 0000 0000 000000
2014-09-02 11:43:37,0.03,0.22,0.00,22.48,26.72,29.39,9.46,39.23,1001.52,2042.99,3405.43,3272.01,3541.46,500.05,490.12,25.87,0000 0000 0000 0000 000000
2014-09-02 11:48:38,0.04,0.23,0.00,22.49,26.72,29.38,9.39,39.21,1001.65,2042.99,3404.50,3271.40,3540.92,500.10,490.32,25.91,0000 0000 0000 0000 000000
2014-09-02 11:53:39,0.02,0.23,0.00,22.51,26.72,29.36,9.46,39.15,1001.65,2042.99,3403.76,3271.00,3540.13,500.17,490.36,25.95,0000 0000 0000 0000 000000
2014-09-02 11:58:40,0.02,0.23,0.00,22.49,26.72,29.37,9.49,39.10,1001.64,2042.99,3403.01,3270.67,3539.92,499.99,490.21,25.99,0000 0000 0000 0000 000000
2014-09-02 12:03:42,0.04,0.23,0.00,22.48,26.73,29.35,9.50,39.27,1001.81,2042.99,3402.21,3270.05,3539.11,500.09,490.41,26.04,0000 0000 0000 0000 000000
2014-09-02 12:08:43,0.02,0.23,0.00,22.50,26.74,29.40,9.44,39.26,1001.81,2042.99,3401.66,3269.91,3538.87,499.89,490.33,26.08,0000 0000 0000 0000 000000
2014-09-02 12:13:44,0.04,0.23,0.00,22.50,26.75,29.39,9.39,39.17,1001.85,2042.99,3400.96,3269.18,3538.10,499.70,490.10,26.12,0000 0000 0000 0000 000000
2014-09-02 12:18:45,0.02,0.24,0.00,22.52,26.75,29.40,9.41,39.09,1001.86,2042.98,3400.13,3269.00,3537.89,500.05,490.38,26.16,0000 0000 0000 0000 000000
2014-09-02 12:23:46,0.05,0.24,0.00,22.52,26.75,29.35,9.46,39.33,1001.90,2042.98,3399.42,3268.44,3537.08,500.05,490.16,26.20,0000 0000 0000 0000 000000
2014-09-02 12:28:47,0.01,0.24,0.00,22.54,26.75,29.39,9.45,39.40,1001.91,2042.96,3398.70,3268.00,3536.74,500.36,490.57,26.24,0000 0000 0000 0000 000000
2014-09-02 12:33:49,0.03,0.24,0.00,22.54,26.76,29.40,9.49,39.44,1001.92,2042.98,3398.00,3267.71,3536.03,500.36,490.60,26.29,0000 0000 0000 0000 000000
2014-09-02 12:38:50,0.04,0.24,0.00,22.52,26.77,29.41,9.41,39.54,1001.90,2042.96,3397.18,3267.04,3535.73,499.88,490.19,26.33,0000 0000 0000 0000 000000
2014-09-02 12:43:51,0.02,0.24,0.00,22.50,26.77,29.37,9.46,39.47,1001.85,2042.97,3396.67,3266.95,3535.06,500.04,490.36,26.37,0000 0000 0000 0000 000000
2014-09-02 12:48:52,0.03,0.24,0.00,22.50,26.77,29.37,9.44,39.58,1001.77,2042.95,3396.03,3266.36,3534.98,499.83,490.07,26.41,0000 0000 0000 0000 000000
2014-09-02 12:53:53,0.03,0.25,0.00,22.53,26.77,29.40,9.50,39.39,1001.72,2042.95,3395.55,3266.01,3534.26,500.07,490.27,26.45,0000 0000 0000 0000 000000
2014-09-02 12:58:54,-0.00,0.25,0.00,22.49,26.78,29.38,9.50,39.38,1001.64,2042.90,3395.02,3265.95,3534.00,499.92,490.09,26.50,0000 0000 0000 0000 000000